Location: Les Coudrans
(46.1056°N, 1.1158°W)
Time: 07:19:04
(UTC+00:00)

CZ-4 R/B - Pass Details

Date: 03 March 2021
Orbit: 532 x 597 km, 97.7° (Epoch: 18 April)

Event Time Altitude Azimuth Distance (km) Brightness Sun altitude
Rises 19:38:01 0° 203° (SSW) 2,667 5.0 -18.8°
Reaches altitude 10° 19:40:37 10° 222° (SW) 1,787 4.3 -19.2°
Maximum altitude 19:43:22 19° 268° (W) 1,339 4.2 -19.7°
Drops below altitude 10° 19:46:10 10° 313° (NW) 1,814 4.8 -20.2°
Sets 19:48:50 0° 332° (NNW) 2,724 5.5 -20.6°
